This is the latest recevied weather packets stored in our database for station/object KI7CSN-13. If no packets are shown the sender has not sent any weather packets the latest 10 day(s).
| Time | Temp. | Humidity | Pressure | Rain* | Wind** | Luminosity | Snow |
|---|---|---|---|---|---|---|---|
| 1778107357 | 25° C | 21% | 983.7 hPa | 0 mm | - | - | - |
| 1778107057 | 25° C | 22% | 983.7 hPa | 0 mm | - | - | - |
| 1778106757 | 24.44° C | 24% | 983.7 hPa | 0 mm | - | - | - |
| 1778106457 | 25° C | 23% | 983.8 hPa | 0 mm | - | - | - |
| 1778106157 | 24.44° C | 24% | 983.9 hPa | 0 mm | - | - | - |
| 1778105857 | 25° C | 24% | 983.8 hPa | 0 mm | - | - | - |
| 1778105557 | 25° C | 24% | 983.8 hPa | 0 mm | - | - | - |
| 1778105257 | 24.44° C | 24% | 983.9 hPa | 0 mm | - | - | - |
| 1778104957 | 25° C | 24% | 983.9 hPa | 0 mm | - | - | - |
| 1778104657 | 25° C | 23% | 984 hPa | 0 mm | - | - | - |
| 1778104357 | 24.44° C | 24% | 984.1 hPa | 0 mm | - | - | - |
| 1778104057 | 24.44° C | 23% | 984.1 hPa | 0 mm | - | - | - |
| 1778103757 | 25° C | 23% | 984.1 hPa | 0 mm | - | - | - |
| 1778103457 | 24.44° C | 24% | 984.1 hPa | 0 mm | - | - | - |
| 1778103157 | 23.89° C | 24% | 984.3 hPa | 0 mm | - | - | - |
| 1778102857 | 25° C | 24% | 984.3 hPa | 0 mm | - | - | - |
| 1778102557 | 24.44° C | 24% | 984.3 hPa | 0 mm | - | - | - |
| 1778102257 | 23.89° C | 25% | 984.3 hPa | 0 mm | - | - | - |
| 1778101957 | 23.33° C | 24% | 984.3 hPa | 0 mm | - | - | - |
| 1778101657 | 23.33° C | 25% | 984.4 hPa | 0 mm | - | - | - |
| 1778101357 | 22.22° C | 26% | 984.4 hPa | 0 mm | - | - | - |
| 1778101057 | 23.33° C | 25% | 984.4 hPa | 0 mm | - | - | - |
| 1778100757 | 23.33° C | 26% | 984.6 hPa | 0 mm | - | - | - |
| 1778100457 | 23.33° C | 26% | 984.7 hPa | 0 mm | - | - | - |
| 1778100157 | 23.89° C | 25% | 984.6 hPa | 0 mm | - | - | - |
* Rain latest hour (hover to see other rain measurements)
** Current wind speed in m/s (hover to see current wind gust speed)